Flag for Canada Weather past 2 weeks in Coral Harbour, Nunavut Territory, Canada

Now
16 °F

Light snow. Low clouds.


Feels Like: 4 °F
Forecast: -8 / 10 °F
Wind: 9 mph from East

Location: Coral Harbour

Current Time: Dec 22, 2014 at 12:05:58 AM

Latest Report: Dec 21, 2014 at 11:00 PM


Visibility: 2 mi

Pressure: 29.76 "Hg

Humidity: 86%

Dew point: 12 °F

Location of Coral HarbourLocation

Historic Weather in Coral Harbour — Graph

°F

Coral Harbour temperature yesterday

Maximum temperature yesterday: 14 °F (at 10:00 PM)
Minimum temperature yesterday: 1 °F (at 12:00 AM)
Average temperature yesterday: 6 °F

Past Weeks' High & Low Weather Summary

 TemperatureHumidityPressure
High16 °F (Dec 10, 6:00 PM)100% (Dec 18, 9:00 AM)30.32 "Hg (Dec 18, 9:00 AM)
Low-33 °F (Dec 7, 10:00 AM)57% (Dec 15, 12:00 PM)29.42 "Hg (Dec 11, 2:00 AM)
Average-6 °F73%29.98 "Hg
* Reported Dec 6 10:00 PM — Dec 21 10:00 PM, Coral Harbour, Weather by CustomWeather, © 2014

Note: Actual official high and low records may vary slightly from our data, if they occured in-between our weather recording intervals... More about our weather records

Advertising

Coral Harbour weather history for previous 24 hours

 ConditionsComfort  
Time TempWeatherWind HumidityBarometerVisibility
10:00 PM
Dec 21
14 °FLight snow. Low clouds.13 mph85%29.76 "Hg3 mi
9:00 PM12 °FLight snow. Low clouds.15 mph85%29.77 "Hg4 mi
8:00 PM10 °FLight snow. Overcast.15 mph85%29.78 "Hg1 mi
7:00 PM10 °FLight snow. Overcast.16 mph79%29.80 "Hg1 mi
6:00 PM9 °FLight snow. Overcast.16 mph85%29.80 "Hg2 mi
4:00 PM7 °FLight snow. Overcast.12 mph85%29.82 "Hg6 mi
3:00 PM7 °FLight snow. Overcast.9 mph85%29.83 "Hg4 mi
2:00 PM7 °FLight snow. Overcast.8 mph85%29.83 "Hg2 mi
1:00 PM7 °FLight snow. Overcast.6 mph78%29.83 "Hg2 mi
12:00 PM5 °FLight snow. Overcast.3 mph85%29.85 "Hg8 mi
11:00 AM5 °FLight snow. Overcast.3 mph85%29.85 "Hg3 mi
10:00 AM5 °FLight snow. Overcast.3 mph85%29.86 "Hg6 mi
9:00 AM5 °FLight snow. Overcast.5 mph78%29.85 "Hg3 mi
8:00 AM5 °FLight snow. Overcast.8 mph78%29.85 "Hg2 mi
7:00 AM3 °FLight snow. Overcast.10 mph78%29.86 "Hg2 mi
6:00 AM1 °FLight snow. Overcast.9 mph85%29.87 "Hg2 mi
5:00 AM3 °FLight snow. Overcast.7 mph78%29.88 "Hg2 mi
4:00 AM3 °FLight snow. Overcast.8 mph78%29.88 "Hg4 mi
3:00 AM1 °FLight snow. Overcast.5 mph85%29.88 "Hg6 mi
2:00 AM1 °FLight snow. Overcast.2 mph78%29.88 "Hg6 mi
1:00 AM1 °FLight snow. Overcast.No wind78%29.88 "Hg8 mi
12:00 AM1 °FLight snow. Overcast.2 mph78%29.88 "Hg8 mi
Weather by CustomWeather, © 2014

See weather overviewHow to use our weather pages